[[{"header":{"parameterUnit":"m.s-1","parameterCategory":1,"la1":30.2991,"la2":30.254,"lo1":-89.0895,"lo2":-89.0444,"dy":0.0017,"dx":0.0017,"nx":28,"ny":28,"refTime":"2024-12-18T09:00:00:Z","depth":0,"parameterNumber":2,"parameterNumberName":"U-component_of_WINDS"},"data":[0,0,0,0,0,0,0,0,0,0,0,0,0,0,0,0,0,0,0,0,0,0,0,0,0,0,0,0,0,0,0,0,0,0,0,0,0,0,0,0,0,0,0,0,0,0,0,0,0,0,0,0,0,0,0,0,0,0,-0.9198,-0.9199,0,-0.9258,-0.9258,-0.9259,-0.9232,-0.9231,-0.9229,-0.9228,-0.929,-0.9293,-0.9296,0,0,0,0,0,0,0,0,0,0,0,0,0,-0.9064,-0.9066,-0.9198,-0.9199,-0.92,-0.9258,-0.9258,-0.9259,-0.9232,-0.923,-0.9229,-0.9227,-0.9289,-0.9292,-0.9296,0,0,0,0,0,0,0,0,0,0,0,0,0,-0.9123,-0.9067,-0.9198,-0.9193,-0.9194,-0.9257,-0.9258,-0.9259,-0.9233,-0.923,-0.9228,-0.9226,-0.9288,-0.9292,-0.9297,-0.9369,0,0,-0.931,-0.9312,0,0,0,0,0,0,0,0,-0.9119,-0.9128,-0.9193,-0.9194,-0.9194,-0.9235,-0.9234,-0.9296,-0.9233,-0.9218,-0.9228,-0.9225,-0.9274,-0.9279,-0.9295,-0.9372,-0.9375,-0.9311,-0.9314,-0.9316,-0.9317,0,0,0,0,0,0,0,-0.9115,-0.9125,-0.9222,-0.9194,-0.9195,-0.9189,-0.9195,-0.9245,-0.9257,-0.9219,-0.9217,-0.9225,-0.9273,-0.9291,-0.9296,-0.9376,-0.9311,-0.9315,-0.9318,-0.9319,-0.9516,-0.9519,0,0,0,0,0,0,-0.9111,-0.9122,-0.922,-0.9224,-0.915,-0.9193,-0.92,-0.9224,-0.9257,-0.926,-0.9226,-0.9223,-0.9284,-0.9291,-0.9298,-0.9386,-0.9315,-0.932,-0.9322,-0.9514,-0.9517,-0.952,0,0,0,0,0,0,-0.9108,-0.912,-0.9218,-0.9172,-0.9184,-0.9198,-0.9226,-0.9227,-0.9244,-0.9262,-0.9265,-0.9242,-0.9283,-0.9292,-0.9352,-0.9388,-0.9322,-0.9326,-0.9511,-0.9515,-0.9518,-0.9563,0,0,0,0,0,0,-0.9104,-0.9119,-0.9146,-0.9173,-0.9187,-0.927,-0.9228,-0.9229,-0.9252,-0.9248,-0.9278,-0.928,-0.9282,-0.9345,-0.9356,-0.9393,-0.933,-0.9508,-0.9513,-0.9517,-0.9558,-0.9567,-0.9575,0,0,0,0,0,-0.91,-0.9157,-0.9148,-0.916,-0.9221,-0.9272,-0.928,-0.928,-0.9255,-0.9283,-0.9295,-0.9279,-0.9382,-0.9352,-0.9364,-0.9403,-0.9505,-0.9511,-0.9517,-0.9554,-0.9566,-0.9575,0,0,0,0,0,0,-0.9134,-0.916,-0.9151,-0.9218,-0.9243,-0.9267,-0.9302,-0.9292,-0.9324,-0.932,-0.9319,-0.9326,-0.9388,-0.9401,-0.9366,-0.9475,-0.944,-0.9449,-0.9464,-0.9475,-0.9484,-0.948,-0.9333,0,0,0,0,0,-0.915,-0.9188,-0.9209,-0.9266,-0.9279,-0.9289,-0.9311,-0.9309,-0.9335,-0.9345,-0.9361,-0.9388,-0.9426,-0.9451,-0.9488,-0.956,-0.9566,-0.9592,-0.9601,-0.9608,-0.9616,-0.9656,-0.9668,-0.9538,-0.9538,-0.9538,0,0,-0.9182,-0.9201,-0.9225,-0.9273,-0.9293,-0.9333,-0.9298,-0.9342,-0.9373,-0.9352,-0.941,-0.9423,-0.9452,-0.9519,-0.9549,-0.9532,-0.9653,-0.9615,-0.9621,-0.9625,-0.9663,-0.9675,-0.9686,-0.9542,-0.9541,-0.9541,0,0,-0.9262,-0.9279,-0.9329,-0.9349,-0.9379,-0.9385,-0.9397,-0.9423,-0.9431,-0.9489,-0.9474,-0.9511,-0.9577,-0.9599,-0.9618,-0.9707,-0.9695,-0.9719,-0.9765,-0.9804,-0.9815,-0.9824,-0.9857,-0.9868,-0.9726,-0.9726,-0.9726,0,-0.9298,-0.9358,-0.9357,-0.9403,-0.9425,-0.9408,-0.9459,-0.9479,-0.9519,-0.9535,-0.9515,-0.9597,-0.9616,-0.9688,-0.971,-0.9726,-0.974,-0.9716,-0.9813,-0.9822,-0.9831,-0.9862,-0.9874,-0.9729,-0.9729,-0.9729,-0.9728,0,-0.9403,-0.9445,-0.9482,-0.9521,-0.9547,-0.9595,-0.9601,-0.9628,-0.9624,-0.9632,-0.9692,-0.9714,-0.9755,-0.9771,-0.9767,-0.9843,-0.9832,-0.9813,-0.9778,-0.9846,-0.9876,-0.9887,-0.9733,-0.9732,-0.9731,-0.9731,0,0,-0.9506,-0.9543,-0.9557,-0.9575,-0.9606,-0.9639,-0.9687,-0.9727,-0.9751,-0.9779,-0.982,-0.9876,-0.9859,-0.9881,-0.988,-0.9914,-0.9985,-0.9891,-0.9892,-0.9908,-1.0071,-1.0086,-1.0099,-0.9976,-0.9979,-0.998,-1.0069,0,-0.9589,-0.9672,-0.9672,-0.975,-0.9789,-0.9774,-0.9816,-0.9841,-0.985,-0.9885,-0.9896,-0.9936,-0.9909,-0.9923,-0.9956,-0.9969,-1.0017,-0.9962,-1.0015,-1.0017,-1.0009,-1.0115,-1.013,-1.0213,-1.008,-1.0082,-1.0083,0,-0.9696,-0.9728,-0.981,-0.9836,-0.9853,-0.9891,-0.9927,-0.9961,-0.9989,-0.9993,-1.0019,-1.0012,-1.0062,-1.0025,-1.0094,-1.0057,-1.0078,-1.0088,-1.0091,-1.0097,-1.0055,-1.0124,-1.0239,-1.0251,-1.0101,-1.01,-1.0098,0,-0.9765,-0.9828,-0.9885,-0.9901,-0.9933,-0.996,-0.9975,-1.0,-1.0024,-1.0057,-1.0072,-1.011,-1.0131,-1.0161,-1.0165,-1.0138,-1.0235,-1.0198,-1.0241,-1.0241,-1.0263,-1.0262,-1.0384,-1.0276,-1.0275,-1.0275,-1.0275,0,-0.9858,-0.9909,-0.9917,-0.9952,-1.0009,-1.0008,-1.0065,-1.0077,-1.01,-1.0138,-1.0127,-1.0163,-1.0166,-1.0204,-1.0207,-1.0265,-1.0274,-1.028,-1.028,-1.0281,-1.0281,-1.0296,-1.0291,-1.0278,-1.0278,-1.0277,-1.0277,0,-0.9944,-0.9951,-1.0013,-1.0038,-1.0046,-1.0087,-1.0109,-1.0143,-1.0151,-1.02,-1.0211,-1.0224,-1.0268,-1.0275,-1.0326,-1.0328,-1.0398,-1.0392,-1.0388,-1.0388,-1.0431,-1.0427,-1.0568,-1.0587,-1.0465,-1.0466,-1.0467,0,-1.0003,-1.0042,-1.0072,-1.0097,-1.0113,-1.0152,-1.0177,-1.0179,-1.0205,-1.024,-1.027,-1.0312,-1.0346,-1.0417,-1.0431,-1.047,-1.0466,-1.0513,-1.0472,-1.0472,-1.0468,-1.0466,-1.0471,-1.0521,-1.0522,-1.0523,-1.0524,0,-1.0108,-1.011,-1.0146,-1.0183,-1.0213,-1.0243,-1.0271,-1.0291,-1.0297,-1.0327,-1.0371,-1.0398,-1.045,-1.0492,-1.0532,-1.0547,-1.0537,-1.0537,-1.0549,-1.0551,-1.0548,-1.0551,-1.0411,-1.0534,-1.0533,-1.0532,-1.0531,-1.0531,-1.0184,-1.0218,-1.0244,-1.0285,-1.0306,-1.0333,-1.0366,-1.0379,-1.0415,-1.0458,-1.0457,-1.0506,-1.0533,-1.0585,-1.0603,-1.0642,-1.0627,-1.0645,-1.0649,-1.0654,-1.0658,-1.0541,-1.0649,-1.0649,-1.0649,-1.0648,-1.0648,0,-1.0289,-1.0305,-1.0342,-1.0382,-1.0414,-1.0401,-1.0431,-1.0459,-1.0503,-1.0529,-1.0563,-1.0614,-1.0655,-1.0673,-1.0714,-1.0742,-1.0738,-1.0753,-1.0751,-1.0755,-1.0669,-1.0655,-1.0755,-1.0755,-1.0755,-1.0755,-1.0755,-1.0755,-1.0347,-1.0405,-1.041,-1.0478,-1.0494,-1.0542,-1.056,-1.0585,-1.0606,-1.0664,-1.0698,-1.071,-1.0733,-1.0776,-1.0813,-1.0818,-1.0834,-1.085,-1.0853,-1.0772,-1.0761,-1.0751,-1.0738,-1.0854,-1.0854,-1.0936,-1.0937,-1.0937]},{"header":{"parameterUnit":"m.s-1","parameterCategory":1,"la1":30.2991,"la2":30.254,"lo1":-89.0895,"lo2":-89.0444,"dy":0.0017,"dx":0.0017,"nx":28,"ny":28,"refTime":"2024-12-18T09:00:00:Z","depth":0,"parameterNumber":3,"parameterNumberName":"V-component_of_WINDS"},"data":[0,0,0,0,0,0,0,0,0,0,0,0,0,0,0,0,0,0,0,0,0,0,0,0,0,0,0,0,0,0,0,0,0,0,0,0,0,0,0,0,0,0,0,0,0,0,0,0,0,0,0,0,0,0,0,0,0,0,-0.1613,-0.1613,0,-0.1649,-0.1649,-0.1649,-0.1645,-0.1645,-0.1644,-0.1644,-0.168,-0.1682,-0.1683,0,0,0,0,0,0,0,0,0,0,0,0,0,-0.1539,-0.1541,-0.1612,-0.1613,-0.1613,-0.1648,-0.1649,-0.1649,-0.1645,-0.1645,-0.1644,-0.1643,-0.168,-0.1681,-0.1683,0,0,0,0,0,0,0,0,0,0,0,0,0,-0.1573,-0.1541,-0.1612,-0.1616,-0.1616,-0.1648,-0.1649,-0.165,-0.1645,-0.1645,-0.1644,-0.1643,-0.1679,-0.1681,-0.1683,-0.1715,0,0,-0.169,-0.1691,0,0,0,0,0,0,0,0,-0.1571,-0.1575,-0.1615,-0.1615,-0.1616,-0.1642,-0.1637,-0.1671,-0.1646,-0.1634,-0.1644,-0.1643,-0.1668,-0.1671,-0.168,-0.1716,-0.1718,-0.169,-0.1692,-0.1693,-0.1693,0,0,0,0,0,0,0,-0.1569,-0.1574,-0.1627,-0.1615,-0.1616,-0.1615,-0.1619,-0.1643,-0.1656,-0.1635,-0.1635,-0.1639,-0.1668,-0.1677,-0.168,-0.1718,-0.169,-0.1692,-0.1694,-0.1695,-0.1783,-0.1784,0,0,0,0,0,0,-0.1566,-0.1572,-0.1626,-0.1628,-0.1591,-0.1617,-0.1621,-0.1634,-0.1655,-0.1658,-0.164,-0.1639,-0.1674,-0.1678,-0.1682,-0.172,-0.1693,-0.1695,-0.1696,-0.1782,-0.1783,-0.1784,0,0,0,0,0,0,-0.1564,-0.157,-0.1624,-0.16,-0.1607,-0.1619,-0.1634,-0.1635,-0.1645,-0.1659,-0.1661,-0.1647,-0.1674,-0.1679,-0.1707,-0.1721,-0.1696,-0.1698,-0.1781,-0.1782,-0.1783,-0.1797,0,0,0,0,0,0,-0.1562,-0.157,-0.1582,-0.16,-0.1608,-0.1649,-0.1635,-0.1637,-0.1649,-0.1648,-0.1666,-0.1669,-0.1673,-0.1703,-0.1709,-0.1724,-0.17,-0.1779,-0.1781,-0.1783,-0.1795,-0.1799,-0.1802,0,0,0,0,0,-0.1559,-0.1584,-0.1583,-0.1589,-0.1624,-0.165,-0.1654,-0.1659,-0.165,-0.1662,-0.1671,-0.1668,-0.1719,-0.1706,-0.1712,-0.1729,-0.1778,-0.1781,-0.1783,-0.1794,-0.1798,-0.1802,0,0,0,0,0,0,-0.1568,-0.1587,-0.1585,-0.1617,-0.1632,-0.1649,-0.1665,-0.1663,-0.1681,-0.1679,-0.1684,-0.1688,-0.1717,-0.1725,-0.1711,-0.176,-0.1747,-0.1751,-0.1754,-0.1758,-0.1761,-0.1759,-0.1702,0,0,0,0,0,-0.1573,-0.1593,-0.1608,-0.1635,-0.1642,-0.1652,-0.1664,-0.1666,-0.1681,-0.1688,-0.1699,-0.1714,-0.1733,-0.1746,-0.1764,-0.1796,-0.18,-0.181,-0.1813,-0.1816,-0.1819,-0.1838,-0.1842,-0.1791,-0.1791,-0.1791,0,0,-0.1585,-0.1598,-0.161,-0.1637,-0.1648,-0.1669,-0.1657,-0.1679,-0.1694,-0.1691,-0.1718,-0.1727,-0.1744,-0.1774,-0.1788,-0.1782,-0.1834,-0.1819,-0.1821,-0.1823,-0.184,-0.1845,-0.1849,-0.1793,-0.1792,-0.1792,0,0,-0.1617,-0.1628,-0.1652,-0.1663,-0.1681,-0.1688,-0.1693,-0.1711,-0.1716,-0.1744,-0.1742,-0.1759,-0.1792,-0.1805,-0.1815,-0.1851,-0.1849,-0.1857,-0.1874,-0.1892,-0.1896,-0.1899,-0.1913,-0.1918,-0.186,-0.186,-0.186,0,-0.1629,-0.166,-0.1664,-0.1686,-0.1698,-0.1696,-0.172,-0.1731,-0.1754,-0.1762,-0.1755,-0.1796,-0.1808,-0.1841,-0.185,-0.1858,-0.1865,-0.1855,-0.1895,-0.1898,-0.1902,-0.1915,-0.192,-0.1861,-0.1861,-0.1861,-0.1861,0,-0.1674,-0.1695,-0.1712,-0.1735,-0.1748,-0.1771,-0.1779,-0.1792,-0.1793,-0.18,-0.1828,-0.1841,-0.1862,-0.187,-0.1871,-0.1904,-0.19,-0.1894,-0.1881,-0.1908,-0.192,-0.1925,-0.1862,-0.1862,-0.1862,-0.1861,0,0,-0.1713,-0.1737,-0.1744,-0.1754,-0.1773,-0.179,-0.1812,-0.1833,-0.1845,-0.186,-0.188,-0.1907,-0.1902,-0.1914,-0.1916,-0.1931,-0.196,-0.1923,-0.1924,-0.193,-0.1997,-0.2002,-0.2008,-0.1958,-0.1959,-0.1959,-0.1996,0,-0.1748,-0.1788,-0.1793,-0.1829,-0.1849,-0.1846,-0.1866,-0.188,-0.1886,-0.1904,-0.1911,-0.1931,-0.1922,-0.1929,-0.1944,-0.1953,-0.1973,-0.195,-0.1976,-0.1977,-0.1973,-0.2014,-0.202,-0.2054,-0.2001,-0.2001,-0.2002,0,-0.1794,-0.1811,-0.1849,-0.1866,-0.1874,-0.1892,-0.1912,-0.1928,-0.1944,-0.1948,-0.1961,-0.1961,-0.1984,-0.197,-0.2002,-0.1986,-0.1997,-0.2003,-0.2004,-0.2008,-0.1992,-0.202,-0.2065,-0.2071,-0.201,-0.2009,-0.2008,0,-0.182,-0.1852,-0.188,-0.1888,-0.1908,-0.1921,-0.1929,-0.1944,-0.1956,-0.1973,-0.1981,-0.2,-0.2011,-0.2026,-0.2031,-0.202,-0.2063,-0.2049,-0.2068,-0.2068,-0.2078,-0.2077,-0.2126,-0.2083,-0.2083,-0.2083,-0.2082,0,-0.1859,-0.1882,-0.1892,-0.1909,-0.1935,-0.1939,-0.1965,-0.1973,-0.1986,-0.2004,-0.2003,-0.202,-0.2025,-0.2043,-0.2047,-0.2074,-0.2078,-0.2083,-0.2084,-0.2084,-0.2083,-0.2091,-0.209,-0.2084,-0.2084,-0.2083,-0.2083,0,-0.1893,-0.19,-0.193,-0.1946,-0.195,-0.1969,-0.1983,-0.1999,-0.2005,-0.2028,-0.2034,-0.2044,-0.2065,-0.2071,-0.2097,-0.2099,-0.2131,-0.2129,-0.2126,-0.2126,-0.2145,-0.2143,-0.2202,-0.221,-0.216,-0.216,-0.2161,0,-0.1918,-0.1936,-0.1954,-0.1966,-0.1976,-0.1995,-0.2008,-0.2012,-0.2025,-0.2044,-0.2058,-0.2079,-0.2096,-0.213,-0.214,-0.2159,-0.2158,-0.2177,-0.2161,-0.2161,-0.216,-0.2159,-0.2162,-0.2181,-0.2181,-0.2182,-0.2182,0,-0.1962,-0.1964,-0.1983,-0.2002,-0.2017,-0.2033,-0.2048,-0.2058,-0.2064,-0.2079,-0.2101,-0.2114,-0.214,-0.2161,-0.218,-0.2189,-0.2187,-0.2187,-0.2192,-0.2193,-0.2191,-0.2193,-0.2135,-0.2186,-0.2186,-0.2185,-0.2185,-0.2185,-0.1993,-0.2009,-0.2025,-0.2045,-0.2057,-0.2071,-0.2087,-0.2095,-0.2113,-0.2135,-0.2136,-0.216,-0.2174,-0.22,-0.221,-0.2229,-0.2223,-0.2231,-0.2233,-0.2235,-0.2237,-0.2187,-0.2232,-0.2232,-0.2232,-0.2232,-0.2232,0,-0.2038,-0.2047,-0.2066,-0.2087,-0.2103,-0.2099,-0.2115,-0.2129,-0.215,-0.2164,-0.2181,-0.2206,-0.2226,-0.2237,-0.2257,-0.2269,-0.2269,-0.2275,-0.2274,-0.2277,-0.224,-0.2234,-0.2275,-0.2275,-0.2275,-0.2275,-0.2275,-0.2275,-0.2063,-0.2091,-0.2095,-0.2128,-0.2137,-0.2161,-0.217,-0.2183,-0.2194,-0.2222,-0.2239,-0.2246,-0.2259,-0.228,-0.2298,-0.23,-0.2308,-0.2315,-0.2317,-0.2283,-0.2279,-0.2275,-0.2269,-0.2316,-0.2316,-0.2352,-0.2352,-0.2352]}]]